Theta_e
323 323 327 336 340 340 339 340 339 338 335 335 334 330 328 326 324 319 314 312 311 310 311 312 313 315 315 315 314 315 316 318 318 318 314 316 319 319 318 317 318 317 315
322 322 326 334 339 339 340 340 339 336 332 331 330 328 326 322 318 315 313 312 311 310 310 311 311 312 312 311 311 310 310 311 311 311 314 316 315 315 314 314 315 315 313
321 321 326 335 338 339 339 339 337 333 330 327 325 324 321 319 317 316 314 312 311 310 309 309 310 310 309 309 309 308 307 308 307 307 314 315 315 314 310 312 312 311 311
325 322 327 333 334 335 336 337 335 329 328 326 326 324 322 320 318 316 314 312 311 310 309 309 309 309 308 306 306 304 303 304 305 309 311 314 314 313 308 308 308 309 308
325 325 326 328 328 330 331 330 328 327 326 326 324 322 321 320 318 315 315 314 313 313 312 308 307 307 306 304 304 303 303 304 305 306 312 314 315 313 311 305 304 305 305
324 325 325 326 327 327 327 327 327 327 325 323 321 320 319 318 318 317 316 316 315 314 313 309 305 304 303 304 304 304 304 305 307 305 310 312 312 314 313 309 304 303 302
316 322 324 326 326 327 328 327 326 324 322 320 319 319 318 318 317 316 316 315 315 315 311 308 305 303 302 303 303 304 304 305 307 306 306 306 307 312 313 311 307 303 301
315 315 316 318 320 322 322 321 321 320 320 319 319 318 318 317 317 316 316 315 315 313 312 309 307 304 303 303 303 303 303 303 304 305 305 305 305 305 307 310 309 304 301
315 314 315 315 315 316 315 314 313 313 313 313 317 318 317 317 316 316 315 314 313 313 311 311 309 307 303 303 303 303 302 302 303 303 302 302 302 302 302 302 303 305 301
313 311 311 311 312 313 313 310 309 313 317 316 315 316 317 316 315 315 314 313 312 312 311 310 309 309 306 303 303 302 301 301 301 300 299 298 297 297 296 295 295 297 296
311 310 311 312 312 311 310 309 310 310 309 311 313 315 316 315 315 314 312 311 311 311 310 309 308 307 305 303 302 301 300 299 298 297 296 294 294 293 293 293 292 292 291
312 312 312 312 311 311 310 310 311 309 308 307 311 312 313 313 313 312 311 310 308 309 309 308 307 307 305 303 301 299 298 296 295 294 294 294 293 293 294 298 300 296 292
307 307 310 312 312 311 311 310 310 308 306 305 305 305 306 309 310 310 310 309 309 308 307 307 306 305 303 302 300 297 296 294 293 293 292 292 300 304 303 299 292 290 290
307 306 307 310 312 311 311 311 308 305 304 304 304 304 305 306 307 308 308 308 307 307 307 306 305 304 302 300 300 296 294 293 292 291 291 294 300 299 291 291 290 289 288
306 307 307 308 311 311 311 310 305 304 304 304 304 304 305 305 306 306 306 306 306 306 306 305 304 302 301 299 299 294 293 292 291 291 292 295 298 295 290 289 288 288 287
307 307 308 310 311 311 309 307 306 306 305 305 305 305 306 305 305 305 305 305 304 304 304 303 302 300 300 298 296 293 292 291 291 292 294 293 290 288 288 288 287 286 286
307 310 311 311 310 309 309 308 307 307 306 306 306 306 305 305 304 303 302 303 302 302 302 301 299 299 297 296 293 291 290 290 291 291 289 288 286 286 286 286 285 285 285
309 309 309 308 306 305 305 305 306 305 305 304 304 304 303 303 301 300 301 300 300 299 299 298 297 295 295 293 291 289 289 290 291 290 284 283 282 282 283 283 283 284 284
304 304 303 303 303 304 304 303 304 303 302 302 302 301 301 300 299 298 298 299 298 297 295 296 295 293 291 290 290 289 290 290 288 287 283 282 281 281 282 282 282 282 282
305 304 304 304 303 303 303 303 303 302 301 301 300 300 300 298 297 296 297 297 296 294 295 294 292 291 290 289 289 289 289 288 287 284 282 281 281 281 281 280 281 281 282
303 302 303 303 303 302 301 300 300 300 300 300 300 298 297 295 295 296 295 294 294 293 292 291 290 289 288 288 287 287 287 286 286 284 283 282 282 280 280 280 279 280 280
302 302 302 303 303 302 300 299 299 298 298 298 297 297 294 294 294 293 293 293 292 291 290 289 288 287 286 286 286 286 286 285 285 285 284 283 281 279 279 279 279 279 279
305 304 303 303 302 301 300 299 298 298 298 298 297 297 294 293 293 293 292 291 290 289 289 288 287 285 284 284 285 285 284 285 285 283 281 279 279 278 278 278 279 279 279
304 305 304 302 302 301 300 299 298 298 298 298 297 296 293 292 291 291 291 289 289 288 288 287 286 285 284 283 284 284 284 283 280 278 277 277 278 278 277 278 278 278 278
300 303 302 301 300 299 298 298 297 297 297 296 295 293 292 292 291 290 289 288 288 287 287 287 285 285 284 283 283 283 282 282 282 280 277 277 277 277 277 277 278 278 277
300 302 300 300 299 298 297 297 297 296 296 295 294 292 291 290 290 288 288 287 286 286 286 285 284 283 282 282 282 282 282 282 281 280 278 277 277 276 277 277 277 276 276
Wind_Speed
11 13 22 34 39 38 37 36 35 32 28 27 28 28 27 25 24 24 22 21 20 20 19 18 18 18 17 17 17 17 17 17 17 17 13 15 16 16 14 13 14 12 8
10 11 19 29 39 39 41 36 38 33 30 28 25 24 24 25 24 23 22 19 18 19 19 19 19 19 18 18 17 17 17 18 18 19 22 17 14 13 13 13 11 10 9
14 11 16 26 35 39 39 39 39 34 25 18 15 17 21 23 24 24 20 17 18 19 18 19 20 20 18 18 18 18 18 19 21 24 16 13 10 20 12 14 13 13 11
13 5 15 25 31 34 35 38 37 28 18 13 9 13 19 22 22 21 19 18 17 18 19 20 21 20 18 18 18 19 20 21 22 28 27 18 15 17 14 17 17 15 13
16 10 1 15 21 27 30 30 24 16 11 10 12 13 14 15 17 19 19 19 19 19 20 20 21 21 19 19 18 18 20 22 22 29 35 25 18 22 17 20 22 20 15
22 16 10 3 7 14 15 17 13 11 10 11 10 11 12 11 13 14 17 19 19 23 23 22 22 23 21 20 18 18 19 21 21 23 33 29 23 28 23 17 25 19 14
21 23 20 13 10 7 7 7 8 7 7 9 9 11 13 14 15 14 16 19 20 23 22 22 21 22 22 20 19 19 18 19 21 22 23 25 23 25 26 22 26 23 18
15 17 16 16 14 12 10 8 2 4 9 13 14 14 16 17 18 17 17 20 22 21 21 20 20 20 21 21 21 21 20 20 20 21 21 21 21 21 22 24 24 18 16
12 12 11 11 11 11 9 7 5 12 18 18 17 18 19 19 19 19 20 21 23 22 21 22 21 21 22 22 22 21 20 20 19 18 18 18 18 17 18 17 20 21 18
9 3 1 3 5 5 6 2 4 6 9 12 16 19 21 21 21 22 23 23 23 24 24 23 23 22 22 23 23 22 20 20 19 17 16 15 15 14 14 15 16 19 18
6 4 5 6 7 8 6 6 8 6 7 11 15 18 20 22 24 24 24 21 22 25 27 26 25 24 23 22 23 23 20 19 17 17 15 13 11 10 9 9 10 11 15
11 12 10 12 12 12 11 9 7 5 10 12 12 16 19 21 24 25 25 23 21 23 23 28 28 26 24 22 22 22 21 19 18 16 14 13 8 6 8 11 13 13 16
24 21 20 20 21 18 14 9 9 11 14 14 12 12 13 17 21 24 24 26 27 27 29 29 30 28 25 22 22 23 21 19 18 16 16 13 10 18 19 18 15 13 14
29 30 24 23 23 19 15 14 14 12 13 12 14 14 15 16 17 20 23 25 25 28 31 31 33 30 26 27 25 24 22 20 18 19 17 15 19 17 12 11 14 13 12
25 25 26 23 24 19 16 15 13 12 14 14 15 15 17 18 18 21 26 30 29 29 28 34 35 30 30 30 25 22 21 20 20 20 16 18 17 12 14 14 14 13 13
19 18 20 21 20 15 13 14 14 14 15 15 17 18 20 19 18 22 28 30 31 28 29 34 34 34 32 25 22 20 22 23 23 21 19 14 15 14 14 14 13 12 12
13 12 16 17 15 15 17 16 17 18 19 20 21 23 20 18 18 19 21 25 26 26 28 33 35 28 23 24 20 20 23 21 19 16 14 13 14 14 15 15 14 12 12
6 9 9 10 12 14 17 20 20 20 20 21 22 19 18 16 17 16 17 20 24 23 28 31 25 21 21 21 22 23 20 18 18 15 11 10 10 10 10 11 14 13 11
7 9 11 14 17 17 18 18 18 19 19 17 15 12 12 14 10 11 14 22 20 22 23 20 20 21 20 20 21 19 17 18 16 12 10 10 9 8 9 8 10 10 10
14 15 17 17 15 15 16 18 20 19 17 13 10 10 9 10 9 8 10 18 18 17 18 19 18 17 18 20 19 16 16 14 12 8 9 9 8 7 9 8 8 8 8
13 15 17 16 15 14 15 15 15 15 14 13 11 10 9 7 6 6 7 12 14 16 15 14 15 16 16 16 15 14 13 10 7 7 9 9 7 7 10 11 9 7 7
13 14 16 16 15 14 16 16 16 14 13 12 12 10 8 5 3 4 7 11 12 13 14 15 15 15 13 11 13 12 10 8 7 8 13 12 8 9 9 10 10 8 8
19 19 18 18 16 15 16 17 16 13 11 10 11 10 8 4 4 7 9 11 11 12 13 16 15 15 12 11 10 10 10 10 13 13 12 12 9 11 12 10 9 8 8
19 23 24 20 18 17 17 17 16 12 10 9 10 9 6 6 8 8 9 9 11 13 13 15 15 16 14 12 10 9 7 9 9 11 15 16 14 13 13 12 10 9 9
21 23 22 20 18 17 16 16 15 11 8 9 10 9 7 8 8 8 8 7 9 10 9 11 14 13 13 12 11 6 5 4 5 9 14 16 15 14 13 10 10 9 8
20 22 18 17 17 17 16 14 11 7 8 10 11 9 9 10 9 9 8 8 6 7 7 5 6 8 7 8 11 10 10 9 8 7 11 14 14 12 11 10 10 9 8
Wind_Direction
309 269 256 242 231 229 225 218 219 213 216 219 220 223 228 235 243 249 252 255 258 257 253 252 253 254 256 255 252 246 241 235 223 214 187 165 169 180 198 205 211 226 235
306 275 243 234 230 226 223 220 218 213 213 220 230 236 241 245 248 250 250 250 254 258 254 253 252 253 254 251 246 243 233 223 210 203 184 155 172 189 194 207 218 223 222
323 296 234 227 223 218 220 219 216 213 214 224 236 252 252 251 254 257 257 258 260 263 259 254 255 256 251 248 244 240 234 224 204 196 183 165 194 188 194 205 214 225 233
2 290 206 203 207 209 211 214 209 204 208 226 247 259 269 273 279 282 281 279 280 282 277 266 258 255 254 250 247 242 232 225 219 202 199 201 205 188 180 191 196 202 217
39 43 192 204 203 205 203 203 194 198 223 254 253 257 268 277 285 284 286 289 293 294 291 279 265 259 256 254 250 245 239 231 223 218 208 213 216 206 195 192 191 198 210
55 62 74 88 213 209 204 195 200 228 246 254 274 280 286 295 298 300 301 301 304 305 299 285 271 265 258 257 257 251 242 237 233 225 223 228 223 216 215 208 197 202 204
68 71 71 82 102 129 168 209 226 238 276 290 300 303 301 297 299 303 296 292 300 309 303 289 281 273 267 258 254 252 249 241 235 234 234 235 235 230 228 230 205 200 207
90 89 91 93 96 103 112 106 96 334 321 309 302 299 291 289 289 287 290 293 297 303 296 286 284 281 273 265 256 250 247 244 241 238 238 236 234 232 233 235 222 205 207
106 98 106 109 111 127 134 148 222 267 276 286 288 288 284 287 291 291 287 294 300 290 286 290 287 283 276 266 258 247 241 241 242 240 237 233 232 229 225 223 222 227 219
138 58 92 154 152 163 161 199 259 254 268 275 280 282 279 287 288 282 287 290 295 285 281 284 286 277 274 267 259 253 245 241 240 238 237 237 233 232 229 228 222 225 236
220 269 229 207 194 191 220 205 197 238 287 266 272 277 281 285 280 281 288 290 287 279 274 273 273 272 270 266 258 252 243 235 233 231 228 227 227 231 235 235 234 237 235
273 274 241 218 224 231 210 196 200 274 297 292 273 275 278 280 280 288 290 282 287 276 272 268 269 264 261 259 253 245 236 229 225 224 222 222 213 229 253 266 271 267 254
318 306 266 241 228 218 206 215 243 263 269 271 281 291 296 292 292 293 292 297 288 279 266 259 254 252 252 246 244 240 234 228 221 217 212 211 244 259 265 260 245 234 234
286 289 272 249 226 215 221 238 247 251 254 260 270 280 285 286 287 287 283 283 283 282 273 265 246 243 243 239 244 238 229 225 223 221 214 230 243 241 227 238 241 228 225
284 279 263 244 217 214 226 237 249 247 247 255 269 276 284 292 287 288 285 278 278 270 268 251 237 233 240 240 240 228 232 229 226 223 238 253 250 226 221 232 235 233 228
273 265 251 218 210 222 237 254 251 254 253 255 268 277 286 284 278 282 287 286 274 262 253 239 235 235 245 243 237 228 231 226 222 234 248 239 243 237 227 231 230 225 221
262 230 201 206 217 233 244 252 254 261 261 266 271 274 280 278 280 283 282 275 268 256 251 244 234 244 239 243 221 217 222 225 243 240 228 232 239 233 233 229 226 217 222
175 180 195 218 240 255 261 263 262 266 272 279 280 278 285 291 291 288 278 271 255 255 258 234 239 237 239 232 220 218 232 247 245 220 224 231 229 218 212 210 209 207 213
232 230 236 245 250 262 268 268 270 278 286 286 288 287 289 297 287 285 279 261 252 264 236 240 243 237 231 228 232 232 246 233 217 205 217 220 220 211 199 194 199 191 188
279 275 267 262 272 286 289 287 287 290 291 295 296 290 295 289 282 278 281 261 262 248 246 245 242 244 240 236 241 236 230 216 202 185 212 206 202 211 192 171 178 184 164
264 267 269 270 276 288 291 294 293 298 293 293 291 289 286 275 266 274 267 257 250 248 244 240 237 237 236 232 222 220 230 229 204 200 231 233 210 193 188 172 175 173 166
268 272 270 272 274 286 297 296 300 299 298 301 305 296 288 264 255 253 248 252 251 248 241 229 223 225 227 222 207 211 228 216 229 264 259 243 220 192 190 180 177 169 165
270 280 279 269 268 281 294 297 299 291 291 293 299 308 294 229 219 238 247 254 248 240 232 222 217 213 208 207 210 214 225 246 255 246 226 219 199 188 185 181 170 168 164
276 276 275 261 257 268 286 294 293 288 286 285 295 293 264 226 229 241 251 249 240 224 219 225 218 211 205 208 212 215 229 239 212 196 194 191 190 181 180 176 163 163 160
285 274 260 256 261 271 285 288 291 288 285 286 272 254 240 236 243 253 257 243 235 236 237 244 234 222 212 212 230 244 234 220 213 209 199 189 184 184 183 183 179 173 164
282 258 249 250 263 274 282 284 287 302 295 276 269 257 242 234 239 239 231 224 232 230 217 222 237 206 202 219 218 206 210 222 215 212 203 191 188 193 199 197 189 175 171